星链-4185 (STARLINK-4185 )

导读 | 豆包AI

STARLINK-4185是美国SpaceX公司星链星座的成员卫星,于2022年7月17日发射入轨。它运行在约548公里的近地轨道,质量约297千克,属于星链Group 4-16组网任务的48颗卫星之一。作为低轨宽带通信卫星,它承担天基互联网接入功能,依托星链星座架构为全球提供低时延卫星互联网服务,是星链大规模太空组网的重要组成部分。

Basic Information
目录编号:
53139
目录名称:
STARLINK-4185
国际标识:
2022-083H
轨道中心:
EARTH
卫星名称:
星链-4185
卫星全名:
星链-4185 (STARLINK-4185 )
卫星状态:
在轨 (已飞行1337 天)
发射日期:
2022-07-17 UTC
国别 :
美国 (US)
星等 :
--
Orbit Information
数据来源 国际轨道数据 AOE轨道数据
星历时间 2026-03-14T19:53:28+0800
16小时前
查看轨道信息
2026-03-13T09:00:00+0800
2天前
查看轨道信息
半长轴 6917.829km 6917.838km
偏心率 0.0000975 0.0001629
轨道倾角 53.217° 53.215°
近地点辐角 95.609° 35.314°
升交点赤经 152.548° 159.075°
平近点角 264.501° 343.645°
近地点 539.017km 538.574km
远地点 540.367km 540.828km
周期 95.436分钟 95.437分钟
每日圈数 15.088571 15.08854
Detailed Information
固有亮度:
5
最大亮度:
2.5
卫星平台:
Starlink v1.5
覆盖范围:
全球
运营商:
太空探索技术公司
运营商所在国:
美国
制造商(研发单位):
太空探索技术公司
制造商所在国:
美国
使用方式:
暂无
Satellite Introduction
星链(Starlink)计划是由太空探索技术公司(SpaceX)提出的一个巨型低轨卫星互联网星座项目,计划在2019年至2024年间在太空搭建由约1.2万颗卫星组成的“星链”网络,其中1584颗将部署在地球上空550千米处的近地轨道,并从2020年开始工作。该卫星仍在工作。
2D Orbit Map
3D Orbit Map
Orbit Altitude Analysis Chart
Orbit Inclination Analysis Chart
Orbit Comprehensive Analysis Chart
View Comprehensive Chart